Regional Weather Roundup
Issued by NWS

Home | Current Version | Previous Version | Graphics & Text | Print | Product List | Glossary Off
Versions: 1 2 3 4 5 6 7 8 9 10 11 12 13 14 15 16 17 18 19 20 21 22 23 24 25 26 27 28 29 30 31 32 33 34 35 36 37 38 39 40 41 42 43 44 45 46 47 48 49 50

000
ASUS43 KTOP 251108
RWRKS

WEATHER ROUNDUP FOR KANSAS
NATIONAL WEATHER SERVICE GOODLAND KS
600 AM CDT FRI JUL 25 2014

NOTE:  "FAIR" INDICATES FEW OR NO CLOUDS BELOW 12,000 FEET WITH NO
SIGNIFICANT WEATHER AND/OR OBSTRUCTIONS TO VISIBILITY.

KSZ001>006-013>018-027>032-041>047-251200-
NORTHWEST KANSAS

CITY           SKY/WX    TMP DP  RH WIND       PRES   REMARKS
GOODLAND       MOCLDY    71  52  50 NW3       29.90F
HAYS           CLEAR     64  63  94 SW21      29.84S
HILL CITY      MOCLDY    80  63  55 SW10      29.83S
RUSSELL        CLEAR     78  66  66 S20       29.82F
$$

KSZ061>065-074>080-084>089-251200-
SOUTHWEST KANSAS

CITY           SKY/WX    TMP DP  RH WIND       PRES   REMARKS
DODGE CITY     CLEAR     74  63  68 S15       29.92F
ELKHART          N/A     74  56  53 S17         N/A
GARDEN CITY    CLEAR     75  61  61 S16       29.92S
GREAT BEND     CLEAR     77  66  69 S16G23    29.86F
LIBERAL        CLEAR     75  61  60 S12       29.98F
PRATT          CLEAR     72  64  78 S13       29.92F
$$

KSZ066>073-081>083-090>101-251200-
SOUTHEAST KANSAS

CITY           SKY/WX    TMP DP  RH WIND       PRES   REMARKS
CHANUTE        PTCLDY    73  70  90 S14       29.93S
COFFEYVILLE    PTCLDY    73  70  90 S9        29.94S
HUTCHINSON     CLEAR     74  68  81 S9        29.90S
MEDICINE LODGE   N/A     74  68  81 SE7       29.92S
NEWTON         CLEAR     75  64  69 S17G23    29.93S
PARSONS        PTCLDY    72  69  90 S7        29.95F
WICHITA INTL   PTCLDY    73  69  87 S13       29.91S
WICHITA JABRA  CLEAR     75  69  81 S17       29.91S
WICHITA MCCONL CLEAR     73  73 100 S14       29.92S
WINFIELD       PTCLDY    75  70  84 S12       29.94S
$$

KSZ007>012-019>026-033>040-048>060-102>105-251200-
NORTHEAST KANSAS

CITY           SKY/WX    TMP DP  RH WIND       PRES   REMARKS
CONCORDIA      CLEAR     78  70  76 S20G33    29.81S
EMPORIA        CLEAR     75  69  81 S16G24    29.88R
LAWRENCE       PTCLDY    72  66  81 SE7       29.88R
MANHATTAN      MOCLDY    77  70  79 SW16      29.83F
MARYSVILLE     MOCLDY    77  70  78 S12       29.80F
OLATHE IND     PTCLDY    69  64  84 S7        29.91R
OLATHE EXE     PTCLDY    70  64  81 S9        29.90R
SALINA         CLEAR     79  69  71 S20G28    29.84F
TOPEKA BILLARD MOCLDY    79  71  76 SW6       29.86R
TOPEKA FORBES  PTCLDY    77  70  79 S17       29.85S
$$



USA.gov is the U.S. government's official web portal to all federal, state and local government web resources and services.